Location: Newark
(35.7833°N, 139.8000°E)
Time: 08:27:50
(UTC+00:00)

ISS - Visible Passes

Search period start: 22 October 2019 00:00
Search period end: 01 November 2019 00:00
Orbit: 411 x 421 km, 51.6° (Epoch: 22 October)

Date Brightness Start Highest point End Pass type
(mag) Time Alt. Az. Time Alt. Az. Time Alt. Az.
22 Oct -2.4 20:15:59 10° SSW 20:19:10 41° SE 20:22:22 10° ENE visible
23 Oct -1.3 19:28:04 10° S 19:30:43 22° SE 19:33:22 10° ENE visible
24 Oct -0.7 18:41:45 11° SE 18:42:18 12° SE 18:43:33 10° ESE visible
24 Oct -3.6 20:15:20 10° WSW 20:18:39 57° NW 20:21:59 10° NE visible
25 Oct -3.7 19:29:05 42° SSW 19:30:03 74° SE 19:33:25 10° NE visible
26 Oct -1.2 18:43:11 22° E 18:43:11 22° E 18:44:39 10° ENE visible
26 Oct -2.3 20:16:07 13° W 20:18:19 22° NNW 20:21:02 10° NNE visible
27 Oct -2.8 19:30:02 33° NNW 19:30:02 33° NNW 19:32:42 10° NNE visible
28 Oct -0.8 18:43:47 13° NE 18:43:47 13° NE 18:44:14 10° NE visible
28 Oct -1.4 20:17:00 10° NW 20:18:10 11° NNW 20:19:20 10° N visible
29 Oct -1.4 19:30:19 14° N 19:30:19 14° N 19:31:28 10° NNE visible
